FALCON 9 DEB (44298 NORAD) Tracking and Keplerian Element Data

This shows tracking and keplerian element data for the satellite.

Feedback or suggestion? Click here.




ElementValue
Catalog44298
NameFALCON 9 DEB
Epoch Orbit587
Epoch Day174.14491123
Epoch Year2019
RAAN32.417
Inclination53.0043
Eccentricity0.0005368
Argument of Perigee31.2048
Mean Anonmoly328.9275
Mean Motion15.43529499
Decay Rate9.91E-06
L11 44298U 19029BR 19174.14491123 .00000991 00000-0 30980-4 0 9998
L22 44298 53.0043 32.4170 0005368 31.2048 328.9275 15.43529499 5878

Live tracking and technical data element details for FALCON 9 DEB (NORAD 44298). FALCON 9 DEB can be tracked NOW for your location showing map with azimuth and elevation plus other details from your city location.

Track the satellite on the map from your city or location and see movement details for azimuth, elevation, latitude, longitude, range, height, and movement on the map or in text.







IsCatalogInMostPopularTable: catalog: 44298, numindb: 438
Update: records affected: 1



GetName: 44298 FALCON 9 DEB

Hit Count: updated at: Fri, 19 Jul 2019 07:43:39 GMT